Location: Rounton
(54.4000°N, 1.3500°W)
Time: 03:03:32
(UTC+00:00)

ISS - Pass Details

Date: 31 October 2021
Orbit: 417 x 423 km, 51.6° (Epoch: 01 December)

Event Time Altitude Azimuth Distance (km) Brightness Sun altitude
Exits shadow 05:53:57 15° 259° (W) 1,217 -2.0 -10.8°
Maximum altitude 05:56:30 51° 186° (S) 535 -3.2 -10.4°
Drops below altitude 10° 05:59:47 10° 110° (ESE) 1,500 0.6 -10.0°
Sets 06:01:54 0° 105° (ESE) 2,362 2.4 -9.7°
